FW3257 Weather Reports


Display with metric or nautical units.
time (UTC)temp
F
wind
direction
speed
MPH
gust
MPH
rain 1hr
in
rain 24hr
in
rain mn
in
humidity
%
barometer
mb
20260508023036 45 185 2.0 4.0 0.00 0.91 0.91 100 1002.5
20260508021522 45 182 1.0 5.0 0.00 0.91 0.91 100 1002.5
20260508020021 46 186 2.0 6.0 0.00 0.91 0.91 100 1002.5
20260508014519 46 150 2.0 6.0 0.01 0.91 0.91 100 1002.6
20260508013020 46 182 1.0 4.0 0.01 0.91 0.91 100 1002.5
20260508011518 46 181 2.0 6.0 0.01 0.91 0.91 100 1002.7
20260508010033 47 187 1.0 3.0 0.01 0.91 0.91 100 1002.7
20260508004522 47 186 3.0 6.0 0.00 0.91 0.91 100 1003.1
20260508003020 47 185 4.0 5.0 0.00 0.91 0.91 100 1003.0
20260508001525 47 173 4.0 8.0 0.00 0.91 0.91 100 1002.8
20260508000019 47 173 1.0 5.0 0.00 0.91 0.91 100 1003.0
20260507234512 47 190 4.0 7.0 0.00 0.91 0.91 100 1003.3
20260507233012 47 192 3.0 8.0 0.01 0.91 0.91 100 1002.9
20260507231511 47 193 3.0 7.0 0.01 0.91 0.91 100 1003.3
20260507230012 47 207 3.0 9.0 0.01 0.91 0.91 100 1003.5
20260507224511 47 148 5.0 8.0 0.01 0.91 0.91 100 1003.3
20260507223011 47 228 3.0 10.0 0.01 0.90 0.90 100 1003.6
20260507221510 47 182 3.0 12.0 0.01 0.90 0.90 100 1003.6
20260507220008 47 200 5.0 10.0 0.01 0.90 0.90 100 1003.8
20260507214508 48 189 5.0 13.0 0.02 0.90 0.90 100 1003.9
20260507213017 48 217 5.0 10.0 0.06 0.89 0.89 100 1003.8
20260507211506 47 164 7.0 16.0 0.16 0.89 0.89 100 1003.2
20260507210007 47 181 3.0 9.0 0.22 0.89 0.89 100 1004.2
20260507204607 46 157 4.0 8.0 0.27 0.87 0.87 100 1004.7
20260507203104 47 180 4.0 9.0 0.33 0.83 0.83 100 1004.9
20260507201555 48 217 4.0 8.0 0.39 0.74 0.74 100 1005.4
20260507200105 48 205 6.0 10.0 0.39 0.67 0.67 100 1006.1
20260507194553 48 188 7.0 16.0 0.40 0.60 0.60 100 1005.5
20260507193110 48 193 8.0 16.0 0.35 0.50 0.50 100 1005.4
20260507191556 49 202 10.0 19.0 0.22 0.35 0.35 100 1006.1
20260507190047 49 175 8.0 15.0 0.17 0.28 0.28 100 1006.3
20260507184545 48 167 4.0 15.0 0.09 0.19 0.19 100 1006.5
20260507183056 49 221 8.0 17.0 0.06 0.15 0.15 100 1006.4
20260507181544 49 216 8.0 18.0 0.02 0.12 0.12 100 1006.4
20260507180042 49 194 9.0 19.0 0.01 0.10 0.10 100 1006.3
20260507174541 49 175 9.0 18.0 0.00 0.09 0.09 100 1006.6
20260507173043 50 183 8.0 23.0 0.00 0.09 0.09 100 1006.9
20260507171541 50 211 7.0 20.0 0.00 0.09 0.09 100 1007.2
20260507170037 51 164 6.0 21.0 0.00 0.09 0.09 100 1007.3
20260507164533 50 175 6.0 17.0 0.00 0.09 0.09 100 1007.8
20260507163035 50 219 8.0 19.0 0.00 0.09 0.09 100 1008.2
20260507161528 50 195 7.0 19.0 0.00 0.09 0.09 100 1008.8
20260507160047 50 186 9.0 20.0 0.01 0.09 0.09 100 1009.1
20260507154525 50 153 10.0 24.0 0.01 0.09 0.09 100 1009.5
20260507153023 50 174 9.0 18.0 0.01 0.09 0.09 100 1009.6
20260507151522 50 169 9.0 20.0 0.01 0.09 0.09 100 1010.1
20260507150020 51 223 12.0 20.0 0.00 0.09 0.09 100 1010.5
20260507144526 50 145 10.0 18.0 0.01 0.09 0.09 100 1010.7
20260507143016 50 155 9.0 18.0 0.01 0.09 0.09 100 1011.1
20260507141519 49 178 7.0 14.0 0.01 0.09 0.09 100 1011.5
20260507140013 48 167 11.0 24.0 0.01 0.09 0.09 100 1011.5
20260507134512 49 173 10.0 21.0 0.00 0.08 0.08 100 1011.6
20260507133013 50 198 10.0 20.0 0.00 0.08 0.08 100 1011.5
20260507131510 50 221 9.0 17.0 0.00 0.08 0.08 100 1011.8
20260507130024 50 177 9.0 17.0 0.00 0.08 0.08 100 1011.4
20260507124507 49 192 11.0 21.0 0.00 0.08 0.08 100 1011.8
20260507123006 49 165 8.0 19.0 0.00 0.08 0.08 100 1011.8
20260507121502 49 163 9.0 17.0 0.00 0.08 0.08 100 1012.8
20260507120101 49 188 10.0 18.0 0.00 0.08 0.08 100 1013.1
20260507114603 49 157 12.0 19.0 0.00 0.08 0.08 100 1013.5
20260507113056 50 161 8.0 19.0 0.00 0.08 0.08 100 1013.2
20260507111600 50 166 7.0 17.0 0.00 0.08 0.08 100 1013.7
20260507110055 49 142 9.0 13.0 0.00 0.08 0.08 100 1013.3
20260507104554 49 205 8.0 16.0 0.00 0.08 0.08 100 1013.5
20260507103050 48 182 5.0 12.0 0.01 0.08 0.08 100 1013.9
20260507101601 47 190 6.0 16.0 0.01 0.08 0.08 100 1014.2
20260507100045 47 164 8.0 14.0 0.01 0.08 0.08 100 1014.0
20260507094544 48 178 4.0 10.0 0.01 0.08 0.08 100 1013.8
20260507093045 47 142 3.0 14.0 0.00 0.07 0.07 100 1014.0
20260507091540 47 184 8.0 14.0 0.01 0.07 0.07 100 1014.0
20260507090038 47 169 3.0 18.0 0.04 0.07 0.07 100 1014.3
20260507084533 48 173 7.0 14.0 0.06 0.07 0.07 100 1014.3
20260507083031 48 174 7.0 13.0 0.06 0.07 0.07 100 1014.2
20260507081535 49 154 7.0 14.0 0.06 0.06 0.06 100 1014.1
20260507080025 49 189 6.0 10.0 0.03 0.03 0.03 100 1014.4
20260507074522 49 180 5.0 12.0 0.02 0.02 0.02 99 1014.7
20260507073021 49 170 3.0 10.0 0.01 0.01 0.01 100 1014.8
20260507071519 49 208 3.0 7.0 0.00 0.00 0.00 100 1015.2
20260507070016 49 187 4.0 8.0 0.00 0.00 0.00 99 1015.3
20260507064515 49 179 4.0 10.0 0.00 0.00 0.00 100 1015.6
20260507063010 49 184 3.0 9.0 0.00 0.00 0.00 99 1015.6
20260507061509 49 186 5.0 11.0 0.00 0.00 0.00 99 1015.8
20260507060006 49 163 5.0 9.0 0.00 0.00 0.00 99 1016.0
20260507054503 49 192 5.0 9.0 0.00 0.00 0.00 99 1016.2
20260507053002 49 173 3.0 8.0 0.00 0.00 0.00 99 1016.5
20260507051558 49 172 4.0 9.0 0.00 0.00 0.00 99 1016.9
20260507050055 50 187 4.0 8.0 0.00 0.00 0.00 99 1017.2
20260507044552 50 157 2.0 8.0 0.00 0.00 0.00 99 1017.2
20260507043058 50 186 3.0 11.0 0.00 0.00 0.00 99 1017.7
20260507041557 51 187 5.0 9.0 0.00 0.00 0.00 99 1017.9
20260507040051 51 220 4.0 9.0 0.00 0.00 0.00 99 1018.1
20260507034544 51 208 7.0 10.0 0.00 0.00 0.00 99 1018.5
20260507033044 50 153 3.0 7.0 0.00 0.00 0.00 99 1018.5
20260507031537 50 179 2.0 6.0 0.00 0.00 0.00 98 1018.8
20260507030034 50 186 2.0 6.0 0.00 0.00 0.00 98 1019.0
20260507024532 50 186 5.0 9.0 0.00 0.00 0.00 98 1019.2